Regional Weather Roundup
Issued by NWS Midland/Odessa, TX

Skip options and go directly to product.
Home | Oldest Version | Previous Version | Current Version | All | Graphics & Text | Save Text | Print | Product List | Glossary On

Skip product version selection by date and time.   
097
ASUS44 KMAF 271810
RWRMAF
MIDLAND AREA WEATHER ROUNDUP
NATIONAL WEATHER SERVICE MIDLAND TX
100 PM CDT FRI MAY 27 2016

...IN SOUTHWEST TEXAS AND SOUTHEAST NEW MEXICO...

CITY           SKY/WX    TMP DP  RH WIND       PRES   REMARKS
ALPINE         SUNNY     79  16   9 W13G23    30.01F
ANDREWS        FAIR      80  25  13 W16       29.85F
ARTESIA        SUNNY     81  27  13 W17G24    29.85F
BIG SPRING     SUNNY     80  31  16 W15G29    29.83F
CARLSBAD       SUNNY     83  18   9 W16G25    29.83F
DRYDEN           N/A     90  26  10 MISG      29.81F
FORT STOCKTON  SUNNY     86  21   9 W15G26    29.86F
GUAD PASS      NOT AVBL
HOBBS          SUNNY     79  23  12 SW15G29   29.86F
MARFA          SUNNY     76  15  10 W13G23    30.00F
MIDLAND AIRPK  SUNNY     84  20   9 W15G23    29.84F
MIDLAND INTL   SUNNY     84  21  10 SW13G25   29.83F
ODESSA         SUNNY     85  19   9 W18       29.84F
PECOS          SUNNY     86  20   9 W23G30    29.84F
PRESIDIO       FAIR      84  18   8 SW3G20    29.90F
SEMINOLE       SUNNY     81  26  13 W15       29.85S
SNYDER           N/A     81  42  25 W9G16     29.80F
WINK           SUNNY     85  21   9 W17       29.82F
$$
...OTHER STATIONS IN TEXAS...

CITY           SKY/WX    TMP DP  RH WIND       PRES   REMARKS
ABILENE        MOSUNNY   78  68  71 S17       29.77F
AMARILLO       SUNNY     72  42  34 NW9       29.80F
AUSTIN         CLOUDY    69  67  93 NE13      29.78F
BROWNSVILLE    PTSUNNY   90  78  68 S25G33    29.75F HX 104
CORPUS CHRISTI PTSUNNY   88  80  77 SE23G29   29.72F HX 104
DALLAS FTW     CLOUDY    72  66  81 SE14      29.74F
DEL RIO        SUNNY     93  44  18 NW13      29.76F
EL PASO        SUNNY     77  23  13 SW14      29.94F
HOUSTON INT    LGT RAIN  80  74  81 S22G28    29.74F
LUBBOCK        MOSUNNY   79  34  19 SW21G35   29.80F
SAN ANGELO       N/A    N/A N/A N/A MISG      29.79F
SAN ANTONIO    MOSUNNY   87  72  60 S7        29.74F
WACO           CLOUDY    69  65  86 SE14      29.80F
WICHITA FALLS  NOT AVBL
$$
...OTHER LOCATIONS IN NEW MEXICO...

CITY           SKY/WX    TMP DP  RH WIND       PRES   REMARKS
ALAMAGORDO     SUNNY     73  25  16 W10       29.93F
ALBUQUERQUE    MOSUNNY   67  28  23 CALM      29.93F
CANNON AFB     MOSUNNY   72  31  22 W20G26    29.83F
CLOVIS         SUNNY     72  34  25 W17G30    29.84S
HOLLOMAN AFB   SUNNY     74  26  17 N9        29.91F
ROSWELL        SUNNY     80  23  12 VRB5G18   29.84F
RUIDOSO          N/A     63  23  22 NW15G29   30.01S
SANTA FE       MOSUNNY   64  31  28 S8        29.93F
TRUTH OR CONSE SUNNY     73  25  16 N9G17     29.93F
TUCUMCARI      SUNNY     69  33  26 CALM      29.83F
$$

USA.gov is the U.S. government's official web portal to all federal, state and local government web resources and services.